Cloud_Cover
97 94 100 100 99 100 100 100 100 73 97 100 100 100 100 100 78 100 51 100 66 85 51 100 73 5 5 5 2 0 1 2 0 0 4 82 100 100 100 100 100 100 100
5 5 14 56 82 100 100 100 100 100 100 88 100 100 100 100 100 73 100 60 100 60 16 90 88 5 5 5 5 0 5 4 0 0 0 5 84 100 100 100 100 100 100
0 0 10 58 31 6 5 16 95 78 94 59 96 100 100 100 100 100 100 100 100 100 98 59 100 14 66 6 5 0 5 5 0 0 0 5 5 54 86 100 100 100 100
0 0 0 0 1 4 5 5 5 40 40 30 11 82 100 100 100 100 100 100 99 100 94 100 100 100 100 100 5 5 5 5 0 0 5 77 11 86 100 97 98 100 100
28 85 100 94 66 82 93 22 5 0 4 4 5 5 17 95 100 100 100 100 100 100 100 69 100 100 100 100 95 5 8 5 5 4 5 5 5 7 5 7 56 86 100
14 92 87 100 100 100 100 100 74 23 74 13 0 0 1 5 12 73 100 100 100 100 100 100 100 100 92 100 100 95 5 5 5 5 5 17 67 5 5 5 3 74 64
46 100 100 100 100 100 100 100 100 100 2 58 8 0 0 0 1 2 48 100 100 100 100 100 89 100 92 100 100 100 93 30 7 15 5 93 5 5 5 5 1 4 5
100 100 100 100 100 100 100 100 100 100 100 9 88 96 23 0 0 0 1 72 100 100 100 100 100 100 86 94 98 100 100 100 98 61 99 100 55 5 5 17 0 0 0
81 100 100 100 100 100 100 100 100 100 100 100 38 96 42 3 1 0 0 0 8 46 100 100 100 100 100 94 41 96 100 100 100 76 100 100 100 96 5 35 5 2 0
100 100 100 96 100 100 100 100 100 100 100 100 100 6 100 100 100 47 0 0 3 10 74 100 100 100 100 100 99 100 100 100 100 100 100 100 100 100 5 74 61 5 0
100 100 100 99 99 100 100 100 100 100 100 100 100 100 12 90 100 99 100 46 3 7 86 100 100 100 100 100 100 100 100 100 100 100 100 100 100 100 43 5 100 11 49
100 100 100 98 100 100 100 100 100 100 100 100 100 100 100 31 6 100 100 10 9 1 39 100 100 100 100 100 96 100 100 100 100 100 100 100 100 100 89 69 100 54 49
100 100 99 86 100 100 100 100 100 100 100 100 100 100 100 85 7 0 36 54 78 0 5 38 99 100 100 100 100 100 100 98 100 100 100 100 100 100 100 100 100 100 60
100 100 100 100 100 100 100 100 100 100 100 100 100 100 100 70 32 14 14 69 22 1 0 5 88 100 100 100 100 100 100 100 100 100 100 100 100 100 100 100 100 100 100
100 100 55 62 84 100 100 100 100 100 100 100 100 100 100 100 100 100 81 83 94 87 21 47 93 100 100 100 100 100 100 100 100 100 100 100 100 100 100 100 100 100 100
45 92 87 63 93 81 96 99 100 100 100 100 100 100 100 100 100 100 100 98 100 100 92 100 100 100 100 100 100 100 100 100 100 100 100 100 100 100 100 100 100 100 100
55 14 27 80 72 81 75 81 84 90 100 100 100 100 100 100 100 100 100 100 92 99 100 100 100 100 100 100 100 100 100 100 100 100 100 100 100 100 100 100 100 100 100
5 5 5 5 44 16 32 81 86 100 100 100 100 100 100 100 100 100 100 100 100 100 100 100 100 100 100 100 100 100 100 100 100 100 100 100 100 100 100 100 100 100 100
5 5 5 5 5 5 62 65 99 100 100 100 100 100 100 100 100 100 100 100 100 100 100 100 100 100 100 100 100 100 100 100 100 100 100 100 100 100 100 100 100 100 100
5 5 5 5 5 36 15 95 79 97 88 100 100 100 100 100 100 100 100 100 100 100 100 100 100 100 100 100 100 100 100 100 100 100 100 100 100 100 100 100 100 100 100
5 5 70 5 5 12 73 74 100 100 100 100 100 100 100 100 100 100 100 100 100 100 100 100 100 100 100 100 100 100 100 100 100 100 100 100 100 100 100 100 100 100 100
5 5 89 100 67 64 100 100 100 100 100 100 100 100 100 100 100 100 100 100 100 100 100 100 100 100 100 100 100 100 100 100 100 100 100 100 100 100 100 100 100 100 100
100 94 82 100 100 82 71 82 99 100 100 100 100 100 100 100 100 100 100 100 100 100 97 100 100 100 100 100 100 100 100 100 100 100 100 100 100 100 100 100 100 100 100
100 100 100 100 100 100 100 68 59 98 100 100 100 100 100 100 100 100 100 100 100 100 100 98 98 100 100 100 100 100 100 100 100 100 100 100 100 100 100 100 100 100 100
100 100 100 100 100 100 100 100 100 100 100 100 100 100 100 100 100 100 100 100 100 100 100 100 100 100 100 100 100 100 100 100 100 100 100 100 100 100 100 100 100 100 100
100 100 100 100 100 100 100 100 100 100 100 100 100 100 100 100 100 100 100 100 100 100 100 100 100 100 100 100 100 100 100 100 100 100 100 100 100 100 100 100 100 100 100